SCP
0 0 0 0 0 0 0 0 0 0 0 0 0 0 0 0 0 0 0 0 0 0
0 0 0 0 0 0 0 0 0 0 0 0 0 0 0 0 0 0 0 0 0 0
0 0 0 0 0 0 0 0 0 0 0 0 0 0 0 0 0 0 0 0 0 0
0 0 0 0 0 0 0 0 0 0 0 0 0 0 0 0 0 0 0 0 0 0
0 0 0 0 0 0 0 0 0 0 0 0 0 0 0 0 0 0 0 0 0 0
0 0 0 0 0 0 0 0 0 0 0 0 0 0 0 0 0 0 0 0 0 0
0 0 0 0 0 0 0 0 0 0 0 0 0 0 0 0 0 0 0 0 0 0
0 0 0 0 0 0 0 0 0 0 0 0 0 0 0 0 0 0 0 0 0 0
0 0 0 0 0 0 0 0 0 0 0 0 0 0 0 0 0 0 0 0 0 0
0 0 0 0 0 0 0 0 0 0 0 0 0 0 0 0 0 0 0 0 0 0
0 0 0 0 0 0 0 0 0 0 0 0 0 0 0 0 0 0 0 0 0 0
0 0 0 0 0 0 0 0 0 0 0 0 0 0 0 0 0 0 0 0 0 0
0 0 0 0 0 0 0 0 0 0 0 0 0 0 0 0 0 0 0 0 0 0
0 0 0 0 0 0 0 0 0 0 0 0 0 0 0 0 0 0 0 0 0 0
Wind_Speed_500mb
46 45 44 44 47 49 50 50 50 50 52 53 55 56 59 63 66 69 74 76 77 79
24 26 29 32 35 39 41 43 45 46 49 51 52 55 59 65 68 70 72 76 77 78
16 18 20 22 25 29 32 36 39 40 43 45 48 50 53 59 62 67 72 75 78 80
10 14 18 22 26 30 33 37 41 45 47 50 53 54 55 59 61 62 68 69 73 79
14 18 20 22 24 26 26 28 31 35 39 44 49 54 58 63 62 65 71 71 75 79
21 22 23 26 28 31 31 34 36 39 40 41 43 47 50 55 61 65 67 70 73 79
22 23 25 28 29 30 31 32 32 33 33 37 39 41 45 50 58 64 70 71 70 74
25 24 24 25 28 29 31 32 33 29 28 30 31 35 42 45 49 56 62 67 75 81
24 25 27 30 29 31 31 30 29 30 30 30 32 35 39 44 49 51 55 62 65 68
26 25 25 26 26 26 25 25 27 28 29 28 29 31 36 41 46 50 52 56 59 64
26 24 24 24 26 28 29 31 31 33 34 35 34 35 37 40 42 45 47 51 55 58
26 24 26 27 27 30 33 32 34 35 35 38 38 37 39 46 48 48 50 51 53 52
26 25 27 28 31 33 36 37 39 38 39 40 44 42 44 49 54 57 58 57 58 56
27 27 31 33 37 38 41 45 46 48 45 47 48 47 48 52 56 58 64 67 67 65
Wind_Direction_500mb
254 256 257 259 259 261 263 266 267 265 267 268 271 271 272 270 269 268 269 269 269 270
248 252 256 260 260 260 261 264 265 266 266 269 268 269 269 270 271 271 270 271 271 271
254 261 264 266 267 269 271 271 271 272 273 274 274 276 278 276 275 273 272 273 274 274
256 270 274 273 272 274 276 279 281 281 280 279 280 280 277 278 281 277 277 277 275 276
262 275 280 282 285 287 290 291 293 294 293 290 286 283 282 282 277 277 280 279 277 280
268 271 272 278 284 287 290 292 292 292 293 293 294 291 286 281 279 275 275 278 278 276
254 266 275 281 283 287 290 289 289 290 293 294 295 294 290 287 282 278 275 269 267 277
259 268 270 274 281 285 287 290 293 296 300 301 303 302 299 296 294 292 288 283 279 271
280 283 286 290 290 291 297 302 304 307 308 305 308 311 313 311 308 305 303 300 294 287
266 272 280 282 284 286 290 297 305 312 316 323 325 322 316 315 317 319 318 315 311 307
261 268 273 279 285 291 295 302 309 313 318 321 326 322 321 320 320 320 321 324 324 321
256 258 264 271 279 284 290 296 301 308 313 315 321 322 322 318 317 317 320 321 323 326
265 271 276 283 288 292 296 298 299 301 305 306 309 314 313 318 318 317 316 317 319 323
279 278 278 281 286 289 292 295 297 298 299 300 301 305 308 310 313 313 312 313 315 317
Wind_Speed_850mb
46 45 44 44 47 49 50 50 50 50 52 53 55 56 59 63 66 69 74 76 77 79
24 26 29 32 35 39 41 43 45 46 49 51 52 55 59 65 68 70 72 76 77 78
16 18 20 22 25 29 32 36 39 40 43 45 48 50 53 59 62 67 72 75 78 80
10 14 18 22 26 30 33 37 41 45 47 50 53 54 55 59 61 62 68 69 73 79
14 18 20 22 24 26 26 28 31 35 39 44 49 54 58 63 62 65 71 71 75 79
21 22 23 26 28 31 31 34 36 39 40 41 43 47 50 55 61 65 67 70 73 79
22 23 25 28 29 30 31 32 32 33 33 37 39 41 45 50 58 64 70 71 70 74
25 24 24 25 28 29 31 32 33 29 28 30 31 35 42 45 49 56 62 67 75 81
24 25 27 30 29 31 31 30 29 30 30 30 32 35 39 44 49 51 55 62 65 68
26 25 25 26 26 26 25 25 27 28 29 28 29 31 36 41 46 50 52 56 59 64
26 24 24 24 26 28 29 31 31 33 34 35 34 35 37 40 42 45 47 51 55 58
26 24 26 27 27 30 33 32 34 35 35 38 38 37 39 46 48 48 50 51 53 52
26 25 27 28 31 33 36 37 39 38 39 40 44 42 44 49 54 57 58 57 58 56
27 27 31 33 37 38 41 45 46 48 45 47 48 47 48 52 56 58 64 67 67 65
Wind_Direction_850mb
254 256 257 259 259 261 263 266 267 265 267 268 271 271 272 270 269 268 269 269 269 270
248 252 256 260 260 260 261 264 265 266 266 269 268 269 269 270 271 271 270 271 271 271
254 261 264 266 267 269 271 271 271 272 273 274 274 276 278 276 275 273 272 273 274 274
256 270 274 273 272 274 276 279 281 281 280 279 280 280 277 278 281 277 277 277 275 276
262 275 280 282 285 287 290 291 293 294 293 290 286 283 282 282 277 277 280 279 277 280
268 271 272 278 284 287 290 292 292 292 293 293 294 291 286 281 279 275 275 278 278 276
254 266 275 281 283 287 290 289 289 290 293 294 295 294 290 287 282 278 275 269 267 277
259 268 270 274 281 285 287 290 293 296 300 301 303 302 299 296 294 292 288 283 279 271
280 283 286 290 290 291 297 302 304 307 308 305 308 311 313 311 308 305 303 300 294 287
266 272 280 282 284 286 290 297 305 312 316 323 325 322 316 315 317 319 318 315 311 307
261 268 273 279 285 291 295 302 309 313 318 321 326 322 321 320 320 320 321 324 324 321
256 258 264 271 279 284 290 296 301 308 313 315 321 322 322 318 317 317 320 321 323 326
265 271 276 283 288 292 296 298 299 301 305 306 309 314 313 318 318 317 316 317 319 323
279 278 278 281 286 289 292 295 297 298 299 300 301 305 308 310 313 313 312 313 315 317